This is the latest recevied weather packets stored in our database for station/object JE7UPL-13. If no packets are shown the sender has not sent any weather packets the latest 10 day(s).
| Time | Temp. | Humidity | Pressure | Rain* | Wind** | Luminosity | Snow |
|---|---|---|---|---|---|---|---|
| 1777760105 | 15.56° C | 48% | 1007.4 hPa | 0 mm | - | - | - |
| 1777759205 | 15.56° C | 50% | 1007.3 hPa | 0 mm | - | - | - |
| 1777758304 | 14.44° C | 57% | 1007 hPa | 0 mm | - | - | - |
| 1777757405 | 13.89° C | 58% | 1007.4 hPa | 0 mm | - | - | - |
| 1777756504 | 13.33° C | 57% | 1007.2 hPa | 0 mm | - | - | - |
| 1777755605 | 13.33° C | 57% | 1007.2 hPa | 0 mm | - | - | - |
| 1777754704 | 13.33° C | 57% | 1006.7 hPa | 0 mm | - | - | - |
| 1777753805 | 13.33° C | 57% | 1006.6 hPa | 0 mm | - | - | - |
| 1777752904 | 12.78° C | 58% | 1006.5 hPa | 0 mm | - | - | - |
| 1777752005 | 12.22° C | 58% | 1006.2 hPa | 0 mm | - | - | - |
| 1777751105 | 12.22° C | 58% | 1006.2 hPa | 0 mm | - | - | - |
| 1777750206 | 12.78° C | 55% | 1006.2 hPa | 0 mm | - | - | - |
| 1777749305 | 12.78° C | 54% | 1006 hPa | 0 mm | - | - | - |
| 1777748405 | 13.33° C | 54% | 1005.9 hPa | 0 mm | - | - | - |
| 1777747504 | 12.78° C | 52% | 1005.9 hPa | 0 mm | - | - | - |
| 1777746605 | 12.78° C | 53% | 1005.9 hPa | 0 mm | - | - | - |
| 1777745704 | 12.78° C | 51% | 1005.8 hPa | 0 mm | - | - | - |
| 1777744805 | 12.78° C | 50% | 1005.8 hPa | 0 mm | - | - | - |
| 1777743904 | 12.78° C | 49% | 1005.8 hPa | 0 mm | - | - | - |
| 1777743005 | 12.78° C | 49% | 1005.9 hPa | 0 mm | - | - | - |
| 1777742105 | 12.78° C | 48% | 1005.8 hPa | 0 mm | - | - | - |
| 1777741205 | 12.78° C | 43% | 1005.8 hPa | 0 mm | - | - | - |
| 1777740305 | 12.78° C | 39% | 1005.2 hPa | 0 mm | - | - | - |
| 1777739405 | 12.78° C | 36% | 1005.4 hPa | 0 mm | - | - | - |
| 1777738504 | 12.78° C | 34% | 1005.5 hPa | 0 mm | - | - | - |
* Rain latest hour (hover to see other rain measurements)
** Current wind speed in m/s (hover to see current wind gust speed)